Notices

What's New in latest Release from April 7th, 2021:

- Updated Glossary, including Speed of Maximum Gust, and Total Hourly Precipitation

- Updated national and regional climate services offices contacts and prices information

- Addition of station inventory lists for 1981-2010, 1971-2000, and 1961-1990 Normals.

If you haven't already, please take our survey and provide feedback about our website: https://eccc.sondage-survey.ca/f/LanguageSelection.aspx?s=442ca660-fcf1-47c0-95a9-59707d6fd709

Hourly Data Report for January 29, 2006

TORONTO CITY
ONTARIO

43°40'00.000" N
79°24'00.000" W
112.50 m
6158355
71508
XTO

Download Data

Hourly Data (January 2006)
Hourly Data Report for January 29, 2006
TIME
LST
Temp Definition
°C
Dew Point Definition
°C
Rel Hum Definition
%
Precip. Amount Definition
mm

Wind Dir Definition
10's deg

Wind Spd Definition
km/h
Visibility Definition
km
Stn Press Definition
kPa
Hmdx Definition


Wind Chill Definition


Weather Definition


00:00 5.4 2.4 81   LegendMM LegendMM   100.33     LegendNANA
01:00 5.8 2.8 81   LegendMM LegendMM   100.19     LegendNANA
02:00 5.1 3.3 88   LegendMM LegendMM   100.11     LegendNANA
03:00 4.4 2.8 89   LegendMM LegendMM   100.05     LegendNANA
04:00 4.9 2.7 86   LegendMM LegendMM   99.99     LegendNANA
05:00 4.3 2.9 91   LegendMM LegendMM   99.85     LegendNANA
06:00 4.1 2.7 91   LegendMM LegendMM   99.70     LegendNANA
07:00 3.5 2.1 91   LegendMM LegendMM   99.67     LegendNANA
08:00 3.7 2.1 89   LegendMM LegendMM   99.46     LegendNANA
09:00 3.2 2.2 93   LegendMM LegendMM   99.36     LegendNANA
10:00 3.5 3.0 97   LegendMM LegendMM   99.22     LegendNANA
11:00 3.6 3.3 98   LegendMM LegendMM   99.06     LegendNANA
12:00 3.7 3.5 99   LegendMM LegendMM   98.83     LegendNANA
13:00 3.6 3.4 99   LegendMM LegendMM   98.54     LegendNANA
14:00 3.4 3.2 99   LegendMM LegendMM   98.40     LegendNANA
15:00 4.1 3.8 98   LegendMM LegendMM   98.30     LegendNANA
16:00 4.6 4.3 98   LegendMM LegendMM   98.24     LegendNANA
17:00 4.7 4.5 99   LegendMM LegendMM   98.23     LegendNANA
18:00 5.4 5.2 99   LegendMM LegendMM   98.28     LegendNANA
19:00 5.5 5.3 99   LegendMM LegendMM   98.27     LegendNANA
20:00 5.8 5.6 99   LegendMM LegendMM   98.30     LegendNANA
21:00 7.0 6.9 99   LegendMM LegendMM   98.34     LegendNANA
22:00 7.0 6.7 98   LegendMM LegendMM   98.41     LegendNANA
23:00 7.2 6.9 98   LegendMM LegendMM   98.44     LegendNANA

Notes on Data Quality.

Legend

  • E = Estimated
  • M = Missing
  • NA = Not Available*
  • [empty] = Indicates an unobserved value
Date modified: